Temp
61 63 62 62 63 63 63 63 63 62 62 60 60 60 60 59 60 59 59 60 58 58 58 56 55 54 51 46 44 45 43 40 44 35 36 35 35 35 35 34 35 34 36
59 59 59 61 60 60 61 62 61 60 61 61 60 59 60 60 61 60 59 58 57 56 56 52 52 49 48 46 45 45 44 41 38 34 33 32 32 36 34 32 34 35 34
54 55 56 57 58 59 60 59 59 59 61 60 60 59 59 60 59 60 59 58 56 56 56 52 52 47 46 45 44 43 40 38 35 34 32 33 32 31 31 31 30 32 34
49 49 50 51 53 54 55 57 58 60 60 59 59 60 60 60 59 59 57 56 55 54 53 53 51 47 47 45 41 40 37 36 34 33 31 31 31 31 31 30 28 30 30
47 46 47 46 47 47 47 47 48 50 53 54 54 53 52 52 52 52 51 50 49 48 45 44 44 41 39 41 39 36 37 34 34 32 31 30 30 29 30 30 30 29 29
46 46 45 44 41 44 44 43 43 43 44 44 43 43 45 46 44 44 45 45 43 42 41 39 38 36 39 39 40 39 39 35 33 33 31 32 31 31 30 29 28 26 25
43 40 39 38 40 40 40 40 39 39 40 39 40 40 40 40 41 43 41 41 40 39 37 36 34 34 35 36 38 38 38 39 40 36 33 32 32 32 31 28 28 27 26
38 38 37 37 36 37 38 38 38 38 37 37 37 37 38 37 41 41 39 38 37 37 36 36 34 34 34 35 35 34 34 35 36 34 35 33 34 34 34 31 30 27 26
35 36 36 35 33 35 36 37 36 35 34 34 33 33 34 34 39 40 39 34 35 34 34 34 34 33 36 37 34 33 32 32 37 37 37 38 38 36 34 29 25 25 21
33 33 33 33 34 34 34 34 32 33 32 32 33 33 33 33 37 39 36 33 33 32 32 32 33 34 37 38 34 33 32 32 32 32 32 33 35 35 36 31 28 25 24
31 32 32 32 34 34 33 32 33 33 33 33 33 33 33 33 34 39 37 33 32 32 31 31 32 37 38 38 37 33 34 32 33 31 30 28 27 28 31 33 30 29 22
29 30 32 33 33 33 33 33 33 33 33 30 31 32 32 32 35 38 38 37 36 32 32 31 32 37 38 38 35 35 35 32 30 30 26 27 28 28 30 31 32 32 33
30 29 30 32 33 33 33 33 32 32 32 30 30 31 30 31 31 37 37 37 37 32 31 31 34 36 36 36 37 35 32 30 30 29 28 29 28 30 29 27 28 28 30
24 23 23 23 27 30 31 31 32 31 31 30 30 30 29 29 30 31 32 33 32 32 32 32 34 34 35 34 31 34 32 31 28 25 21 23 28 28 28 27 27 27 27
22 21 21 20 19 20 21 26 28 29 31 29 29 29 27 28 29 34 33 31 28 30 27 26 29 29 29 29 29 30 30 30 29 30 28 22 26 27 26 26 27 26 25
20 21 19 19 17 17 17 18 32 34 36 36 36 29 19 32 35 36 36 35 34 33 27 27 27 27 27 28 28 28 29 29 29 28 26 26 25 25 24 24 25 24 24
17 16 15 16 15 13 12 16 16 20 32 32 33 33 33 33 34 35 35 35 35 32 20 19 17 18 17 17 19 25 23 20 21 25 26 25 24 23 22 23 23 23 22
10 12 10 10 10 11 12 9 9 10 12 20 27 29 31 33 34 34 34 34 30 31 27 25 24 24 21 12 11 12 12 13 19 19 23 22 21 21 19 19 20 20 20
11 9 6 7 8 10 11 12 10 9 10 18 18 20 16 28 33 33 34 29 27 26 26 26 25 24 23 22 21 20 20 17 16 15 14 16 16 17 15 17 18 18 18
4 10 7 5 8 9 9 10 10 8 6 7 7 7 9 13 15 14 22 23 24 25 25 24 15 14 15 13 13 13 12 10 11 13 12 12 13 14 14 14 14 14 14
2 3 5 7 5 3 2 4 4 5 4 2 4 9 26 19 19 15 6 8 9 8 8 8 7 6 7 7 6 7 7 8 10 12 11 10 11 10 11 13 10 11 10
2 1 1 -1 1 3 -0 0 -0 -0 -1 0 1 3 18 2 2 2 -2 -1 2 5 5 5 4 4 4 5 5 4 5 6 8 8 7 8 10 9 8 8 7 7 5
3 3 1 0 1 1 0 -4 -4 -5 -6 -7 -6 -2 -3 -6 -5 -5 -5 -6 -6 -3 -2 -1 -1 -1 -1 0 2 5 4 3 6 5 6 6 5 6 5 5 4 3 3
2 1 1 -1 -1 -1 -6 -8 -9 -7 -9 -9 -11 -10 -7 -9 -10 -9 -9 -9 -8 -9 -10 -8 -7 -5 -6 -6 -6 -4 -3 -1 0 5 6 5 3 3 2 3 2 2 1
-2 -2 -2 -3 -6 -8 -8 -6 -4 -8 -9 -10 -8 -10 -9 -8 -7 -8 -8 -9 -10 -11 -5 -7 -8 -5 -4 -5 -6 -6 -4 5 3 1 -1 1 1 1 0 1 0 1 3
-3 -3 -6 -8 -7 -9 -11 -8 -6 -6 -7 -7 -7 -7 -8 -8 -7 -7 -6 -7 -6 -5 -4 -4 -4 -3 -4 -4 -4 -2 1 6 4 7 4 2 1 1 0 1 1 0 -1
MSLP
1011.59 1011.99 1012.55 1012.85 1013.08 1013.47 1013.86 1014.06 1014.33 1014.71 1015.02 1015.41 1015.78 1016.13 1016.43 1016.77 1017.07 1017.45 1017.55 1017.68 1017.83 1017.89 1018.09 1018.26 1018.27 1018.63 1018.99 1019.22 1019.48 1019.98 1020.37 1020.82 1021.65 1023.09 1023.97 1024.52 1025.52 1026.08 1026.48 1026.98 1027.95 1028.40 1028.28
1011.09 1011.52 1012.01 1012.41 1012.77 1013.08 1013.23 1013.48 1013.79 1014.08 1014.40 1014.75 1015.15 1015.32 1015.58 1015.83 1016.12 1016.28 1016.42 1016.65 1016.82 1016.99 1017.09 1017.55 1017.51 1018.06 1018.28 1018.65 1018.79 1018.83 1019.09 1019.87 1020.69 1022.33 1023.43 1025.62 1025.63 1025.88 1026.83 1026.91 1027.26 1027.71 1027.94
1011.36 1011.62 1011.85 1012.12 1012.32 1012.46 1012.61 1012.88 1013.12 1013.43 1013.67 1014.01 1014.31 1014.52 1014.74 1014.93 1015.16 1015.23 1015.38 1015.53 1015.63 1015.63 1015.79 1016.26 1016.41 1017.04 1017.25 1017.61 1017.47 1018.24 1019.82 1021.14 1020.66 1023.06 1025.28 1024.33 1026.33 1026.73 1026.81 1027.66 1027.23 1026.96 1027.39
1011.54 1011.87 1012.06 1012.34 1012.38 1012.47 1012.58 1012.63 1012.69 1012.80 1013.03 1013.33 1013.53 1013.61 1013.82 1014.02 1014.22 1014.38 1014.51 1014.67 1014.91 1015.03 1015.39 1015.62 1015.86 1016.36 1016.79 1017.20 1017.82 1018.73 1019.56 1020.47 1022.09 1021.56 1023.05 1024.52 1025.25 1026.61 1026.36 1027.06 1027.56 1026.85 1026.71
1011.96 1012.15 1012.31 1012.52 1012.56 1012.55 1012.76 1012.92 1012.96 1013.09 1013.16 1013.18 1013.22 1013.47 1013.63 1013.77 1014.00 1014.21 1014.29 1014.64 1014.92 1015.11 1015.36 1015.91 1016.11 1016.51 1016.76 1017.08 1017.66 1018.42 1019.15 1019.98 1021.05 1022.16 1023.00 1023.83 1025.27 1025.82 1026.02 1026.19 1026.63 1026.93 1026.47
1012.11 1012.36 1012.56 1012.73 1013.07 1013.06 1013.11 1013.32 1013.50 1013.58 1013.64 1013.70 1013.87 1014.00 1014.09 1014.16 1014.32 1014.50 1014.60 1014.90 1015.23 1015.35 1015.76 1016.02 1016.28 1016.71 1017.10 1017.41 1018.04 1018.64 1019.02 1019.65 1020.66 1021.69 1022.82 1022.35 1023.64 1024.68 1025.26 1025.57 1026.29 1026.54 1026.81
1012.63 1012.89 1013.06 1013.19 1013.43 1013.58 1013.62 1013.70 1013.96 1014.20 1014.37 1014.59 1014.71 1014.76 1014.86 1014.95 1014.96 1014.88 1014.97 1015.22 1015.57 1015.88 1016.25 1016.64 1016.90 1017.21 1017.32 1017.74 1017.92 1018.19 1018.73 1019.13 1019.62 1020.42 1021.06 1021.77 1022.46 1023.67 1024.62 1024.98 1025.56 1025.38 1025.64
1013.29 1013.39 1013.54 1013.63 1013.82 1014.01 1014.13 1014.34 1014.55 1014.72 1015.00 1015.22 1015.45 1015.45 1015.46 1015.44 1015.20 1015.20 1015.32 1015.43 1015.63 1015.81 1016.10 1016.46 1016.78 1017.13 1017.04 1017.75 1018.36 1018.61 1019.19 1019.10 1019.58 1019.88 1020.15 1021.10 1021.96 1022.73 1022.98 1023.52 1024.51 1024.93 1025.48
1014.16 1014.20 1014.20 1014.22 1014.29 1014.45 1014.57 1014.74 1015.00 1015.22 1015.43 1015.60 1015.85 1015.95 1016.00 1016.03 1015.92 1015.78 1015.90 1016.14 1016.35 1016.57 1016.69 1016.72 1016.80 1016.90 1017.04 1017.41 1017.84 1018.22 1019.07 1019.68 1019.74 1020.19 1020.63 1021.12 1022.10 1022.77 1022.91 1023.96 1024.78 1025.42 1025.49
1014.89 1014.86 1014.84 1014.64 1014.75 1014.84 1015.03 1015.26 1015.56 1015.69 1015.97 1016.02 1016.04 1016.18 1016.20 1016.18 1016.07 1015.85 1016.12 1016.44 1016.82 1017.02 1017.20 1017.26 1017.44 1017.34 1017.37 1017.46 1017.77 1018.05 1018.59 1019.41 1020.02 1020.33 1020.81 1021.04 1021.56 1022.05 1022.48 1023.02 1023.79 1024.00 1024.15
1015.79 1015.66 1015.53 1015.26 1015.05 1015.11 1015.34 1015.54 1015.63 1015.87 1016.07 1016.30 1016.37 1016.50 1016.47 1016.30 1016.25 1016.11 1016.47 1016.74 1017.02 1017.11 1017.36 1017.65 1017.82 1017.69 1017.78 1018.05 1018.46 1018.48 1019.01 1019.49 1019.97 1020.48 1020.98 1021.31 1021.91 1022.39 1022.56 1022.85 1023.10 1023.26 1023.37
1016.31 1016.15 1015.87 1015.63 1015.62 1015.57 1015.57 1015.86 1015.98 1016.25 1016.51 1016.69 1016.75 1016.79 1016.74 1016.66 1016.70 1016.56 1016.75 1016.83 1016.90 1017.06 1017.29 1017.28 1017.31 1017.62 1017.88 1018.08 1019.01 1019.55 1019.82 1020.08 1020.50 1021.34 1021.82 1022.10 1022.40 1022.46 1022.48 1022.52 1022.42 1022.44 1022.20
1016.69 1016.60 1016.42 1016.16 1016.15 1016.02 1015.92 1016.14 1016.32 1016.44 1016.58 1016.86 1016.91 1017.05 1017.16 1017.05 1016.87 1016.81 1016.92 1017.08 1017.29 1017.70 1017.71 1017.63 1017.70 1017.68 1018.00 1018.23 1018.55 1019.14 1019.47 1019.78 1020.16 1020.74 1020.95 1021.05 1021.12 1021.28 1021.75 1022.12 1022.25 1022.15 1022.38
1016.97 1017.07 1017.09 1016.88 1016.90 1016.77 1016.58 1016.50 1016.65 1016.81 1016.94 1017.13 1017.19 1017.30 1017.32 1017.28 1017.12 1017.00 1016.91 1017.11 1017.47 1017.68 1017.84 1017.87 1018.03 1018.12 1018.20 1018.43 1018.82 1019.18 1019.49 1019.91 1020.27 1020.71 1020.95 1021.04 1021.48 1021.63 1021.61 1021.84 1022.17 1022.32 1022.37
1017.76 1017.77 1017.80 1017.67 1017.63 1017.67 1017.74 1017.62 1017.53 1017.47 1017.37 1017.50 1017.66 1017.91 1017.82 1017.69 1017.58 1017.36 1017.32 1017.60 1017.80 1018.13 1018.10 1018.21 1018.46 1018.68 1018.80 1019.13 1019.34 1019.59 1019.75 1020.06 1020.38 1020.60 1021.09 1021.52 1021.47 1021.45 1021.68 1021.83 1022.07 1022.05 1022.08
1019.00 1018.88 1018.57 1018.25 1018.35 1018.41 1018.26 1018.23 1017.96 1017.72 1017.80 1017.86 1017.78 1017.72 1017.76 1017.76 1017.42 1017.44 1017.61 1017.86 1018.09 1018.35 1018.60 1018.89 1019.10 1019.15 1019.51 1019.71 1019.95 1020.15 1020.14 1020.37 1020.51 1020.84 1020.98 1021.09 1021.25 1021.46 1021.67 1021.70 1021.76 1021.71 1021.72
1018.95 1019.19 1019.75 1020.04 1020.31 1020.18 1019.68 1019.13 1019.17 1018.57 1018.43 1018.37 1018.14 1018.05 1018.01 1018.01 1017.92 1017.57 1017.64 1017.70 1018.01 1018.48 1018.90 1019.17 1019.54 1019.85 1019.80 1020.11 1020.27 1020.51 1020.59 1020.44 1020.58 1020.70 1020.72 1020.78 1020.89 1020.97 1021.21 1021.20 1021.22 1021.44 1021.55
1019.97 1020.71 1020.95 1020.85 1020.60 1020.35 1020.26 1020.24 1020.12 1020.08 1019.81 1019.44 1019.19 1018.83 1018.40 1018.06 1018.09 1018.05 1018.11 1018.07 1018.32 1018.47 1018.86 1019.09 1019.37 1019.60 1019.83 1020.14 1020.46 1020.66 1020.42 1020.29 1020.35 1020.43 1020.63 1020.58 1020.72 1020.77 1020.97 1020.99 1021.01 1021.26 1021.30
1021.49 1022.00 1022.09 1021.62 1021.06 1020.54 1020.37 1020.20 1020.19 1020.36 1020.61 1020.46 1020.15 1019.71 1019.38 1019.09 1018.46 1018.27 1018.41 1018.63 1018.91 1019.26 1019.30 1019.41 1019.54 1019.62 1019.61 1019.83 1019.73 1019.87 1019.83 1020.07 1020.27 1020.33 1020.52 1020.72 1020.75 1020.90 1020.95 1021.06 1021.09 1021.16 1021.19
1022.80 1022.52 1022.20 1021.95 1021.62 1021.30 1021.05 1020.97 1021.20 1021.33 1021.38 1021.45 1021.25 1021.04 1020.54 1020.27 1020.26 1020.11 1019.87 1019.63 1019.66 1019.75 1019.55 1019.66 1019.73 1019.86 1019.99 1020.02 1020.20 1020.31 1020.25 1020.33 1020.34 1020.35 1020.25 1020.59 1020.62 1020.66 1020.79 1021.03 1021.20 1021.05 1021.19
1023.40 1022.90 1022.73 1022.47 1022.49 1022.47 1022.45 1022.49 1022.36 1022.28 1022.53 1022.44 1022.14 1021.74 1020.98 1020.86 1020.82 1021.10 1021.58 1021.25 1021.20 1020.90 1020.72 1020.81 1020.84 1020.65 1020.67 1020.60 1020.48 1020.38 1020.46 1020.42 1020.29 1020.26 1020.16 1020.19 1020.49 1020.71 1020.60 1020.54 1020.91 1020.90 1020.96
1023.64 1023.46 1023.30 1023.31 1023.33 1023.38 1023.47 1023.45 1023.49 1023.49 1023.42 1023.33 1023.19 1022.63 1021.99 1022.13 1022.20 1022.17 1022.00 1021.77 1021.69 1021.42 1020.98 1020.91 1020.90 1021.09 1020.61 1020.60 1020.53 1020.36 1020.31 1020.34 1020.26 1020.16 1020.24 1020.30 1020.42 1020.64 1020.57 1020.77 1021.00 1020.74 1020.92
1023.89 1023.89 1023.92 1024.04 1023.94 1024.00 1024.20 1024.22 1024.26 1024.28 1024.21 1024.14 1024.11 1023.86 1023.35 1023.08 1022.83 1022.60 1022.72 1022.59 1022.28 1022.08 1021.50 1021.23 1021.08 1021.07 1020.61 1020.47 1020.26 1020.19 1020.23 1020.06 1020.06 1020.16 1020.09 1020.21 1020.36 1020.49 1020.62 1020.80 1020.66 1020.87 1020.93
1024.48 1024.54 1024.60 1024.69 1024.56 1024.64 1024.77 1024.74 1024.72 1024.54 1024.54 1024.55 1024.66 1024.34 1023.99 1023.67 1023.35 1023.00 1022.79 1022.85 1022.70 1022.17 1021.82 1021.38 1021.12 1020.80 1020.72 1020.59 1020.33 1020.04 1019.95 1019.79 1019.72 1019.82 1019.74 1019.87 1019.99 1020.13 1020.36 1020.47 1020.73 1020.86 1020.61
1025.10 1025.17 1025.28 1025.43 1025.44 1025.28 1025.22 1025.12 1024.94 1024.86 1024.77 1024.68 1024.53 1024.20 1023.76 1023.59 1023.26 1022.84 1022.54 1022.45 1022.40 1022.10 1021.41 1021.19 1021.01 1020.68 1020.43 1020.26 1020.02 1019.70 1019.46 1019.32 1019.26 1019.29 1019.46 1019.68 1019.65 1019.77 1020.02 1020.03 1020.50 1020.56 1020.62
1025.49 1025.49 1025.63 1025.65 1025.70 1025.52 1025.26 1025.10 1024.88 1024.67 1024.49 1024.20 1023.94 1023.61 1023.17 1023.10 1022.90 1022.25 1021.87 1021.91 1021.67 1021.25 1020.85 1020.55 1020.29 1020.09 1019.90 1019.65 1019.34 1019.07 1018.89 1018.84 1018.93 1018.86 1019.01 1019.15 1019.18 1019.34 1019.55 1019.74 1020.02 1020.18 1020.39
Wind_Speed
12 13 12 12 14 14 13 13 13 11 12 11 12 12 13 13 13 13 14 15 14 15 13 12 14 12 9 8 7 7 6 4 9 2 2 3 7 9 7 6 5 4 4
8 8 9 9 9 10 12 12 10 11 10 11 11 12 13 14 14 14 15 13 15 14 15 11 15 7 11 8 8 12 11 8 4 5 4 3 1 7 5 7 5 5 5
3 5 6 7 7 11 11 10 9 9 11 11 12 12 13 14 13 14 15 15 15 16 15 14 15 11 13 9 10 8 0 3 5 6 4 3 3 2 3 1 4 4 4
2 4 5 5 5 4 4 5 7 9 11 10 11 13 13 13 13 13 13 13 12 12 11 11 11 10 13 10 7 6 6 8 4 7 6 5 3 2 3 4 4 3 5
2 3 5 4 3 3 2 3 4 4 3 3 4 2 2 2 2 4 5 5 5 4 2 3 3 3 2 5 6 7 9 7 7 7 2 4 4 3 9 3 4 1 3
2 2 1 3 4 4 4 4 4 4 4 4 3 2 1 1 4 4 2 2 3 3 4 2 3 5 5 9 7 12 12 10 8 6 2 7 6 5 4 4 3 3 3
2 3 4 4 4 4 4 4 5 5 5 5 5 5 5 4 5 6 3 1 0 1 1 2 2 2 6 6 13 16 16 18 14 7 8 5 7 8 6 5 5 3 3
5 5 4 5 5 5 5 5 4 3 4 4 5 5 3 4 5 4 2 2 3 3 4 5 5 6 7 9 9 8 7 9 9 6 7 7 6 9 11 5 5 4 2
6 5 4 5 3 4 4 5 4 4 3 4 4 5 6 5 10 9 3 3 2 2 0 3 4 6 12 17 10 10 8 3 7 9 6 6 8 11 9 6 3 3 3
6 6 5 5 4 5 5 5 2 3 3 2 4 5 5 4 8 6 4 2 2 2 3 3 4 5 15 16 8 10 9 7 7 6 6 7 11 10 15 6 6 5 3
4 3 3 3 5 5 4 2 3 4 4 4 5 4 4 4 5 5 6 2 2 2 1 0 2 7 12 12 8 5 4 8 9 6 5 3 2 3 5 7 6 4 4
1 3 4 5 4 3 6 4 4 4 4 4 3 3 3 4 7 5 6 4 2 1 2 2 2 9 10 10 4 3 6 6 3 2 2 3 5 6 6 6 8 9 7
4 5 3 4 4 4 5 4 3 4 4 3 4 4 4 4 3 5 7 4 4 2 1 0 4 9 7 6 8 8 6 4 5 5 7 7 5 4 3 3 4 4 6
6 5 4 5 5 5 5 4 4 4 3 2 2 2 1 1 1 1 2 2 3 3 3 2 1 3 4 4 1 5 3 3 4 4 2 2 1 2 3 2 3 3 4
4 3 4 4 4 4 4 3 3 1 2 2 2 2 2 3 4 5 0 2 2 3 4 3 2 2 2 1 1 1 1 1 4 6 5 1 1 1 1 2 4 2 5
4 3 4 4 5 3 3 3 10 12 12 12 12 7 2 7 10 6 1 2 3 6 3 2 1 0 1 3 4 4 4 6 6 5 2 2 2 3 4 2 3 3 6
7 6 4 4 2 2 3 4 3 4 10 14 14 13 11 9 8 8 8 3 5 7 2 2 2 3 0 1 2 3 5 3 3 4 4 4 4 4 4 4 4 5 6
7 6 2 1 1 2 3 3 2 3 3 4 9 10 11 11 8 7 4 4 2 2 1 1 1 1 1 3 2 3 2 2 3 2 3 3 3 3 2 4 4 5 5
5 3 1 0 1 3 3 4 4 4 3 3 4 6 9 12 10 10 7 2 1 2 2 2 1 2 2 3 3 3 2 2 2 2 2 2 2 2 3 3 4 5 5
3 5 3 2 3 4 4 4 4 4 4 3 2 2 3 4 4 5 5 4 4 3 3 2 2 2 1 1 1 1 1 1 2 2 2 2 2 3 4 4 4 5 4
1 3 5 5 5 4 4 5 3 3 3 3 2 3 11 4 2 3 2 4 4 3 3 3 3 2 2 2 1 1 2 3 2 2 2 3 3 3 3 4 3 3 2
3 4 5 4 3 5 4 4 4 3 4 4 3 4 10 3 3 3 2 2 3 2 1 1 1 2 1 2 2 2 2 3 2 2 2 2 3 3 2 2 3 2 2
5 5 5 4 4 4 4 4 3 3 3 2 3 3 3 2 2 2 3 4 3 3 3 1 1 2 2 2 2 3 3 3 3 2 2 2 2 3 3 3 3 3 3
5 5 4 3 3 3 3 3 3 3 2 2 3 3 3 3 3 4 3 4 3 3 3 2 2 3 3 3 3 2 2 2 2 3 4 3 4 4 3 2 3 3 2
4 4 4 4 3 3 3 3 3 4 3 3 3 3 3 4 4 4 4 3 4 3 5 4 3 4 6 6 5 5 5 6 4 4 2 3 4 4 3 3 3 3 3
3 2 2 2 2 2 2 3 4 4 4 4 4 4 4 4 5 5 4 4 4 4 5 4 5 7 7 6 7 7 6 7 6 7 5 4 5 4 3 5 6 3 3
Wind_Direction
203 206 211 213 213 216 218 219 220 220 217 212 213 212 214 216 219 221 229 233 230 236 234 235 235 227 224 211 201 204 196 178 224 96 102 133 160 164 168 161 187 194 211
193 189 201 212 211 212 218 221 216 218 217 216 214 215 219 221 224 223 228 228 229 229 229 223 236 226 227 217 213 215 206 195 137 135 136 54 71 167 150 155 175 189 198
201 203 208 211 202 214 218 216 210 211 220 217 218 218 222 224 225 226 229 229 225 227 226 221 231 210 224 216 221 203 166 68 77 101 10 85 69 142 121 257 206 190 204
196 226 235 237 235 241 246 233 218 219 223 220 218 224 223 225 226 230 227 230 232 230 241 240 238 215 232 215 197 187 153 147 130 118 133 131 129 160 144 182 231 209 206
194 202 231 245 251 269 297 315 306 293 293 296 246 247 342 318 287 263 246 262 268 268 247 253 263 273 298 178 177 170 158 146 137 136 111 128 143 153 203 177 215 208 238
188 220 87 81 70 75 57 39 42 43 42 47 52 45 326 38 21 305 270 259 245 226 229 177 122 125 141 150 144 162 166 156 157 151 188 154 164 173 166 169 174 151 254
87 82 83 90 85 67 62 61 48 39 28 29 27 26 8 2 353 348 291 237 219 312 210 160 140 164 148 151 161 163 173 174 175 165 164 162 154 177 168 167 205 159 183
59 62 55 74 86 66 62 61 58 52 45 38 33 26 7 16 9 337 283 163 161 174 188 192 178 170 160 159 155 145 159 163 171 162 162 153 178 188 187 177 177 155 60
35 41 45 68 88 101 84 65 44 53 44 37 26 21 22 13 0 344 10 29 52 35 306 208 194 180 176 167 155 151 155 150 162 177 168 169 176 181 151 122 154 139 211
17 20 35 65 70 71 70 65 60 65 70 49 54 42 36 17 5 4 100 103 80 65 27 15 216 175 175 173 159 158 160 172 167 138 153 159 178 180 181 178 172 185 132
18 38 56 58 81 85 85 59 73 68 63 50 53 37 29 20 360 25 102 90 122 104 103 176 317 195 185 179 169 159 167 139 161 154 158 125 115 183 195 201 196 194 158
11 54 55 58 57 66 85 72 64 61 63 44 30 38 26 10 5 17 102 82 135 147 206 182 172 197 194 193 166 199 155 112 85 109 115 201 215 216 216 216 218 215 215
91 68 59 68 61 56 81 80 80 60 59 45 38 24 11 2 7 11 107 53 74 42 25 231 202 193 195 201 186 180 171 153 171 195 210 219 210 206 174 186 218 239 242
84 67 48 61 50 44 55 45 60 51 50 48 41 33 25 352 7 51 89 79 49 61 52 58 82 109 131 123 117 201 164 168 190 209 208 178 136 171 209 151 244 224 224
73 87 99 96 86 64 52 61 64 48 97 77 38 10 17 7 344 322 201 70 84 94 84 59 57 56 77 75 106 263 119 162 232 234 244 217 187 153 237 183 235 221 235
91 54 37 46 37 54 85 48 46 58 67 69 64 73 0 33 19 13 215 131 120 121 51 50 57 121 259 255 255 267 265 250 249 252 219 187 219 230 233 199 229 226 243
72 50 37 36 23 13 18 59 80 2 76 65 55 52 45 36 24 30 33 168 170 129 78 68 53 2 326 217 209 209 243 206 182 199 215 225 222 224 214 226 229 237 248
57 44 56 81 119 100 79 73 58 52 39 16 18 39 35 39 38 37 25 46 71 134 140 156 202 207 254 239 229 221 230 208 198 199 222 216 209 222 208 239 237 246 252
43 29 325 311 29 86 90 84 86 78 55 29 357 9 4 4 40 44 42 47 354 334 18 13 273 240 232 241 241 231 212 202 196 188 210 203 196 197 239 247 248 243 244
15 40 32 29 28 40 39 58 50 47 54 43 38 331 321 23 20 355 13 9 10 1 345 325 331 334 315 273 274 263 259 255 231 210 198 205 197 201 239 234 236 244 238
358 39 24 47 45 44 39 39 29 58 45 16 12 324 12 25 53 54 340 355 355 349 343 344 330 338 340 336 317 280 239 247 222 215 200 198 193 213 211 222 226 230 229
42 47 46 45 29 38 34 35 32 33 29 21 343 341 18 38 22 13 336 325 309 290 265 225 302 282 246 246 246 246 244 241 237 225 221 217 216 226 201 208 214 199 194
37 40 38 37 40 36 39 28 31 25 7 2 343 341 348 357 342 335 309 300 309 317 317 296 240 291 293 279 252 223 215 225 225 207 213 215 221 222 207 209 198 212 206
33 32 32 26 26 29 25 5 342 1 348 337 330 318 307 304 294 293 288 298 307 299 285 282 257 254 271 272 272 268 257 255 227 229 216 202 208 215 199 200 213 215 195
28 24 21 10 2 355 339 335 332 326 318 305 305 292 295 297 299 290 284 290 284 288 292 290 266 262 261 263 262 261 260 269 252 220 204 202 209 215 203 192 202 213 223
3 354 335 319 311 296 293 301 300 295 290 287 276 271 267 276 269 268 274 276 277 274 276 268 270 269 265 256 253 251 246 248 240 233 204 204 211 216 193 205 213 202 211